Time,TemperatureF,DewpointF,PressureIn,WindDirection,WindDirectionDegrees,WindSpeedMPH,WindSpeedGustMPH,Humidity,HourlyPrecipIn,Conditions,Clouds,dailyrainin,SoftwareType,DateUTC
2013-08-22 00:23:00,68.0,64.0,-100.00,SW,225,5.0,6.0,88,0.00,,,-99.99,,2013-08-22 04:23:00,
2013-08-22 00:54:00,66.0,64.0,-100.00,SSW,200,4.0,6.0,92,0.00,,,-99.99,,2013-08-22 04:54:00,
2013-08-22 01:22:00,66.0,64.0,-100.00,SSW,210,4.0,6.0,92,0.00,,,-99.99,,2013-08-22 05:22:00,
2013-08-22 01:52:00,65.0,63.0,-100.00,South,175,6.0,8.0,94,0.00,,,-99.99,,2013-08-22 05:52:00,
2013-08-22 02:22:00,65.0,63.0,-100.00,SSW,200,7.0,10.0,92,0.00,,,-99.99,,2013-08-22 06:22:00,
2013-08-22 02:32:00,65.0,63.0,-100.00,SSW,200,7.0,10.0,92,0.00,,,-99.99,,2013-08-22 06:32:00,
2013-08-22 02:52:00,64.0,62.0,-100.00,SSW,205,6.0,9.0,92,0.00,,,-99.99,,2013-08-22 06:52:00,
2013-08-22 03:22:00,64.0,62.0,-100.00,SSW,210,6.0,8.0,92,0.00,,,-99.99,,2013-08-22 07:22:00,
2013-08-22 03:52:00,64.0,62.0,-100.00,SW,225,2.0,5.0,93,0.00,,,-99.99,,2013-08-22 07:52:00,
2013-08-22 04:22:00,64.0,62.0,-100.00,SW,215,4.0,6.0,93,0.00,,,-99.99,,2013-08-22 08:22:00,
2013-08-22 04:53:00,63.0,62.0,-100.00,SW,220,4.0,6.0,94,0.00,,,-99.99,,2013-08-22 08:53:00,
2013-08-22 05:01:00,63.0,62.0,-100.00,SW,220,4.0,6.0,94,0.00,,,-99.99,,2013-08-22 09:01:00,
2013-08-22 05:22:00,63.0,61.0,-100.00,SSW,200,4.0,6.0,95,0.00,,,-99.99,,2013-08-22 09:22:00,
2013-08-22 05:53:00,62.0,61.0,-100.00,South,190,3.0,4.0,96,0.00,,,-99.99,,2013-08-22 09:53:00,
2013-08-22 06:23:00,62.0,61.0,-100.00,SSW,195,4.0,5.0,97,0.00,,,-99.99,,2013-08-22 10:23:00,
2013-08-22 08:52:00,65.0,64.0,-100.00,SW,225,4.0,6.0,95,0.00,,,-99.99,,2013-08-22 12:52:00,
2013-08-22 09:22:00,68.0,65.0,-100.00,WSW,250,4.0,7.0,90,0.00,,,-99.99,,2013-08-22 13:22:00,
2013-08-22 09:52:00,69.0,66.0,-100.00,SW,230,4.0,7.0,87,0.00,,,-99.99,,2013-08-22 13:52:00,
2013-08-22 10:22:00,71.0,66.0,-100.00,West,270,4.0,6.0,83,0.00,,,-99.99,,2013-08-22 14:22:00,
2013-08-22 10:52:00,73.0,67.0,-100.00,SW,235,5.0,7.0,82,0.00,,,-99.99,,2013-08-22 14:52:00,
2013-08-22 11:22:00,75.0,69.0,-100.00,WSW,255,4.0,9.0,82,0.00,,,-99.99,,2013-08-22 15:22:00,
2013-08-22 11:54:00,76.0,68.0,-100.00,West,270,2.0,6.0,77,0.00,,,-99.99,,2013-08-22 15:54:00,
2013-08-22 12:25:00,76.0,69.0,-100.00,West,280,2.0,6.0,77,0.00,,,-99.99,,2013-08-22 16:25:00,
2013-08-22 12:54:00,77.0,69.0,-100.00,NW,315,3.0,6.0,74,0.00,,,-99.99,,2013-08-22 16:54:00,
2013-08-22 13:24:00,78.0,69.0,-100.00,South,175,0.0,5.0,72,0.00,,,-99.99,,2013-08-22 17:24:00,
2013-08-22 13:53:00,80.0,69.0,-100.00,NNW,330,1.0,8.0,70,0.00,,,-99.99,,2013-08-22 17:53:00,
2013-08-22 14:22:00,80.0,71.0,-100.00,SW,225,4.0,7.0,74,0.00,,,-99.99,,2013-08-22 18:22:00,
2013-08-22 14:32:00,80.0,71.0,-100.00,SW,225,4.0,7.0,74,0.00,,,-99.99,,2013-08-22 18:32:00,
2013-08-22 14:52:00,81.0,67.0,-100.00,West,260,7.0,11.0,64,0.00,,,-99.99,,2013-08-22 18:52:00,
2013-08-22 15:22:00,74.0,69.0,-100.00,WSW,245,4.0,16.0,82,0.00,,,-99.99,,2013-08-22 19:22:00,
2013-08-22 16:23:00,74.0,71.0,-100.00,NNE,25,1.0,3.0,90,0.00,,,-99.99,,2013-08-22 20:23:00,
2013-08-22 16:52:00,78.0,71.0,-100.00,WNW,285,2.0,5.0,80,0.00,,,-99.99,,2013-08-22 20:52:00,
2013-08-22 17:22:00,79.0,71.0,-100.00,NW,305,6.0,9.0,76,0.00,,,-99.99,,2013-08-22 21:22:00,
2013-08-22 17:54:00,79.0,70.0,-100.00,West,280,5.0,14.0,73,0.00,,,-99.99,,2013-08-22 21:54:00,
2013-08-22 18:25:00,78.0,68.0,-100.00,WSW,245,6.0,12.0,72,0.00,,,-99.99,,2013-08-22 22:25:00,
2013-08-22 18:53:00,78.0,69.0,-100.00,WSW,250,3.0,7.0,76,0.00,,,-99.99,,2013-08-22 22:53:00,
2013-08-22 19:23:00,77.0,69.0,-100.00,West,280,4.0,9.0,78,0.00,,,-99.99,,2013-08-22 23:23:00,
2013-08-22 19:52:00,75.0,69.0,-100.00,West,275,4.0,6.0,80,0.00,,,-99.99,,2013-08-22 23:52:00,
2013-08-22 20:12:00,75.0,69.0,-100.00,West,275,3.0,9.0,81,0.00,,,-99.99,,2013-08-23 00:12:00,
2013-08-22 20:23:00,74.0,69.0,-100.00,WNW,285,3.0,8.0,83,0.00,,,-99.99,,2013-08-23 00:23:00,
2013-08-22 20:52:00,73.0,69.0,-100.00,West,280,4.0,7.0,86,0.00,,,-99.99,,2013-08-23 00:52:00,
2013-08-22 21:21:00,73.0,68.0,-100.00,WNW,285,2.0,6.0,87,0.00,,,-99.99,,2013-08-23 01:21:00,
2013-08-22 21:52:00,72.0,68.0,-100.00,WNW,290,1.0,3.0,88,0.00,,,-99.99,,2013-08-23 01:52:00,
2013-08-22 22:23:00,71.0,68.0,-100.00,West,265,0.0,1.0,90,0.00,,,-99.99,,2013-08-23 02:23:00,
2013-08-22 22:52:00,71.0,68.0,-100.00,WSW,255,1.0,2.0,92,0.00,,,-99.99,,2013-08-23 02:52:00,
2013-08-22 23:23:00,71.0,68.0,-100.00,West,270,0.0,3.0,91,0.00,,,-99.99,,2013-08-23 03:23:00,
2013-08-22 23:55:00,71.0,68.0,-100.00,WNW,285,0.0,0.0,91,0.00,,,-99.99,,2013-08-23 03:55:00,